Simultaneous Nadir Overpasses (SNOs) Predictions

Prediction of SNOs between GOES-14 and AQUA Satellite Orbit:

Table of predicted SNOs for the next 14.0 days since TLE Epoch: 4/5/2019
Index Date Time (GOES-14) GOES-14 Lat,Lon AQUA Lat,Lon Distance(km) Time Diff (sec)
1 04/07/2019 08:24:03 0.12,-104.40 -0.47,-101.77 300.46 80
2 04/07/2019 20:45:26 -0.11,-104.35 -0.66,-106.95 295.50 80
3 04/09/2019 20:30:34 -0.12,-104.34 -0.05,-103.99 40.21 80
4 04/11/2019 20:18:22 -0.12,-104.34 0.56,-101.03 375.67 80
5 04/12/2019 08:39:38 0.12,-104.38 0.48,-106.20 206.36 80
6 04/14/2019 08:30:06 0.12,-104.37 -0.14,-103.24 129.28 80
7 04/14/2019 20:51:29 -0.12,-104.34 -0.99,-108.42 464.26 80
8 04/16/2019 08:17:55 0.13,-104.37 -0.76,-100.28 465.19 80
9 04/16/2019 20:39:17 -0.12,-104.33 -0.37,-105.46 128.63 80
10 04/18/2019 20:24:25 -0.13,-104.33 0.26,-102.51 207.17 80
11 04/19/2019 08:45:41 0.12,-104.35 0.84,-107.66 377.38 80




NCC Satellite Simultaneous Nadir Overpasses (SNOs) Prediction Service
